This demonstration page uses our WeatherBlox Daily Observations layout. Learn more.

Left ArrowRight Arrow

Hourly Observations for December 11, 2018

Temp ( °F °C ) Dew Point ( °F °C ) Humidity (%) Winds ( mph kmh ) Pressure ( in mb ) Visibility ( mi km ) Precip ( " mm )
12:57 am 00:57 Clear 28 -2.2 20 -6.7 72 72 SW 12 19 30.09 1019 10 16 0.00 0.00
1:57 am 01:57 Clear 27 -2.8 19 -7.2 72 72 SW 12 19 30.07 1018 10 16 0.00 0.00
2:57 am 02:57 Clear 24 -4.4 18 -7.8 77 77 SW 6 9 30.07 1018 10 16 0.00 0.00
3:57 am 03:57 Clear 24 -4.4 17 -8.3 75 75 SSW 7 11 30.05 1018 10 16 0.00 0.00
4:57 am 04:57 Clear 26 -3.3 18 -7.8 71 71 WSW 8 13 30.03 1017 10 16 0.00 0.00
5:57 am 05:57 Clear 25 -3.9 18 -7.8 75 75 WSW 7 11 30.02 1017 10 16 0.00 0.00
6:57 am 06:57 Clear 24 -4.4 18 -7.8 77 77 WSW 3 6 30.01 1016 10 16 0.00 0.00
7:57 am 07:57 Sunny 23 -5 18 -7.8 81 81 WSW 5 7 30.02 1017 10 16 0.00 0.00
8:57 am 08:57 Sunny 23 -5 18 -7.8 81 81 SW 6 9 30.00 1016 10 16 0.00 0.00
9:57 am 09:57 Sunny 26 -3.3 19 -7.2 75 75 WNW 6 9 30.01 1016 10 16 0.00 0.00
10:57 am 10:57 Sunny 28 -2.2 19 -7.2 69 69 NNW 5 7 29.98 1015 10 16 0.00 0.00
11:57 am 11:57 Sunny 30 -1.1 21 -6.1 69 69 NW 5 7 29.95 1014 10 16 0.00 0.00
12:57 pm 12:57 Sunny 33 0.6 23 -5 66 66 NW 10 17 29.94 1014 10 16 0.00 0.00
1:57 pm 13:57 Sunny 35 1.7 25 -3.9 67 67 NW 8 13 29.93 1014 10 16 0.00 0.00
2:57 pm 14:57 Sunny 36 2.2 24 -4.4 62 62 WNW 7 11 29.93 1013 10 16 0.00 0.00
3:57 pm 15:57 Sunny 36 2.2 27 -2.8 70 70 WNW 7 11 29.95 1014 10 16 0.00 0.00
4:57 pm 16:57 Sunny 37 2.8 25 -3.9 62 62 NW 16 26 29.95 1014 10 16 0.00 0.00
5:57 pm 17:57 Clear 34 1.1 26 -3.3 73 73 NW 12 19 29.97 1015 10 16 0.00 0.00
6:57 pm 18:57 Clear 32 0 27 -2.8 82 82 NW 12 19 29.98 1015 10 16 0.00 0.00
7:57 pm 19:57 Clear 30 -1.1 26 -3.3 85 85 WNW 12 19 29.99 1016 10 16 0.00 0.00
8:57 pm 20:57 Clear 31 -0.6 29 -1.7 92 92 NW 10 17 29.99 1016 10 16 0.00 0.00
9:57 pm 21:57 Clear 30 -1.1 27 -2.8 88 88 WNW 12 19 29.98 1015 10 16 0.00 0.00
10:57 pm 22:57 Clear 27 -2.8 25 -3.9 92 92 WNW 8 13 29.98 1015 10 16 0.00 0.00
11:57 pm 23:57 Clear 27 -2.8 25 -3.9 92 92 NW 9 15 29.96 1014 10 16 0.00 0.00

Powered by AerisWeather